Regional Weather Roundup
Issued by NWS Wakefield, VA

Home | Current Version | Previous Version | Text Only | Print | Product List | Glossary Off
Versions: 1 2 3 4 5 6 7 8 9 10 11 12 13 14 15 16 17 18 19 20 21 22 23 24 25 26 27

000
ASUS41 KAKQ 182315
RWRAKQ

REGIONAL WEATHER ROUNDUP
NATIONAL WEATHER SERVICE WAKEFIELD VA
600 PM EST WED JAN 18 2017

Note: "fair" indicates few or no clouds below 12,000 feet with no
significant weather and/or obstructions to visibility. * = Denotes
station may not report precipitation (e.g., rain,snow,etc.),
thunder or fog.

VAZ042-051-052>054-056-190000-
NORTHERN VIRGINIA

CITY           SKY/WX    TMP DP  RH WIND       PRES   REMARKS
WASH NATIONAL  PTCLDY    52  37  56 N15       30.05R
DULLES         PTCLDY    49  34  56 NW17      30.05R
FORT BELVOIR   CLEAR     52  35  52 NW8       30.04R
QUANTICO       CLEAR     53  38  56 N15G24    30.05R
FREDERICKSBRG* PTCLDY    54  38  56 N6        30.02R
STAFFORD*      CLEAR     51  37  57 NE5       30.07R
WARRENTON      CLEAR     51  33  50 N8        30.03R
CULPEPER*      CLEAR     51  37  57 E3        30.04R
MANASSAS*      CLEAR    N/A N/A N/A N12G17    30.05R
LEESBURG*      PTCLDY    48  39  71 N10       30.06R
WINCHESTER     PTCLDY    43  34  70 NW14      30.05S
FRONT ROYAL*   FAIR      46  36  66 NE6       30.04R
LURAY*         FAIR      50  37  62 NW7       30.03R
$$

VAZ048-049-060>072-079>083-190000-
CENTRAL AND SOUTH CENTRAL VIRGINIA

CITY           SKY/WX    TMP DP  RH WIND       PRES   REMARKS
RICHMOND       PTCLDY    55  37  50 N6        30.00R
CHESTERFIELD*  FAIR      57  27  30 NW6       30.02R
PETERSBURG*    CLEAR     54  36  50 NW3       30.01R
HANOVER        CLEAR     54  36  50 CALM      30.03R
TAPPAHANNOCK*  CLEAR     53  32  44 N6        30.02R
QUINTON*       FAIR      56  39  52 NE7       30.00R
CHARLOTTSVILLE CLEAR     54  34  46 N3        30.01R
GORDONSVILLE*  FAIR      50  38  62 CALM      30.01R
ORANGE*          N/A     48  36  61 CALM      30.03R
LOUISA*        PTCLDY    48  43  81 CALM      30.00R
BUMPASS*       FAIR      49  37  64 CALM      30.01R
FARMVILLE*     CLEAR     54  38  55 CALM      30.00R
CREWE*         FAIR      52  38  58 CALM      30.01R
FORT PICKETT*  FAIR      55  28  34 CALM      30.01R
CHASE CITY*    FAIR      54  33  44 CALM      30.01R
CLARKSVILLE*   FAIR      55  36  47 CALM      30.01R
SOUTH HILL*    CLEAR     52  36  54 CALM      30.06S
LAWRENCEVILLE* FAIR      54  36  51 CALM      30.00S
EMPORIA*       CLEAR     55  36  47 CALM      30.02R
$$

VAZ088>098-190000-
SOUTHEAST VIRGINIA

CITY           SKY/WX    TMP DP  RH WIND       PRES   REMARKS
NORFOLK        CLEAR     48  44  86 N3        30.00R
VIRGINIA BEACH PTCLDY    45  42  89 NW5       30.00R
NORFOLK NAVAL  PTCLDY    47  43  86 N5        30.02R
WEST POINT*    CLEAR     53  37  54 N5        30.03R
SALUDA*        MOCLDY    46  46 100 CALM      30.01R
NEWPORT NEWS   PTCLDY    47  44  90 CALM      30.01R
LANGLEY AFB    PTCLDY    47  45  93 CALM      30.00R
FORT EUSTIS    MOCLDY    51  44  77 CALM      29.99R
WILLIAMSBURG*  PTCLDY    54  46  76 CALM      30.02R
HR EXEC AP*    FAIR      45  39  81 CALM      29.99R
FRANKLIN*      PTCLDY    51  46  82 CALM      30.01R
US460-WAKEFLD  CLEAR     50  46  86 CALM      30.00R
$$

VAZ020-022-025-037-045-190000-
WEST CENTRAL AND SOUTHWEST VIRGINIA

CITY           SKY/WX    TMP DP  RH WIND       PRES   REMARKS
STAUNTON*      CLEAR     48  33  56 N5        30.05R
WAYNESBORO*    FAIR      49  33  54 CALM      30.03R
HOT SPRINGS VA CLOUDY    36  36 100 W16       30.01R
LYNCHBURG      CLEAR     47  34  60 CALM      30.04R
DANVILLE       CLEAR     54  36  50 NW3       30.03R
SOUTH BOSTON*  FAIR      54  34  46 W6        30.03R
MARTINSVILLE   CLEAR     52  36  53 N10G16    30.07R
ROANOKE        PTCLDY    47  35  63 NW7       30.10R
BLACKSBURG     CLEAR     44  37  76 W5        30.11R
DUBLIN*        PTCLDY    44  37  76 NW7       30.10S
MARION*        CLEAR     47  37  69 NW13      30.10R
HILLSVILLE*    CLEAR     44  37  78 CALM      30.05S
RICHLANDS*     FAIR     N/A N/A N/A N5        30.11R
WISE*          CLEAR     43  36  75 N3        30.12S
ABINGDON*      CLOUDY    52  39  60 CALM      30.09R
$$

MDZ021>025-VAZ099-100-190000-
SOUTHERN MARYLAND AND THE DELMARVA PENINSULA

CITY           SKY/WX    TMP DP  RH WIND       PRES   REMARKS
PATUXENT RIVER MOCLDY    52  39  61 NW9       30.01R
BAY BRIDGE APT CLOUDY    46  39  76 NW7       30.02R
LEONARDTOWN    CLOUDY    54  36  50 NW5       30.04R
DOVER          CLOUDY    50  50 100 NW12      29.96R
GEORGETOWN     CLOUDY    49  43  80 NE7       30.00R
EASTON         CLOUDY    52  41  66 N6        30.05R
CAMBRIDGE      CLOUDY    50  41  71 N3        30.01R
SALISBURY      CLOUDY    52  42  69 N6        30.00R
OCEAN CITY     CLOUDY    48  44  86 N7        30.00R
WALLOPS ISLAND CLOUDY    52  45  77 N7        30.00R
ACCOMACK*      CLOUDY    49  45  88 NW5       29.99R
$$

NCZ012>017-030>032-190000-
NORTH CENTRAL AND EASTERN NORTH CAROLINA

CITY           SKY/WX    TMP DP  RH WIND       PRES   REMARKS
ROANOKE RAPIDS FAIR      55  36  47 N8        30.00R
RALEIGH        PTCLDY    60  33  36 N5        30.01R
ELIZABETH CITY CLEAR     48  43  82 NE5       30.00R
AHOSKIE*         N/A     52  48  85 CALM      30.01R
EDENTON*       MOCLDY    54  47  77 CALM      30.00R
CURRITUCK*     CLEAR     50  45  81 N7        30.00R
KILL DEVIL HLS NOT AVBL
MANTEO         CLOUDY    49  46  92 NE10      29.99R
CAPE HATTERAS  PTCLDY    51  46  83 NE12G17   29.98R
TARBORO*       NOT AVBL
GOLDSBORO      CLEAR     62  35  36 N7        29.97R
WASHINGTON     CLEAR     54  47  75 NE7         N/A
GREENVILLE     CLEAR     59  37  44 N5        30.02R
NEW BERN       CLEAR     59  39  47 NE12      29.99R
WILMINGTON     CLEAR     67  44  43 N9        29.97R
$$

VAZ048-190000-
ELSEWHERE

CITY           SKY/WX    TMP DP  RH WIND       PRES   REMARKS
HARRISBURG PA  CLOUDY    48  38  68 NW16      30.03R
BALTIMORE      MOCLDY    51  38  60 NW10      30.03R
ANNAPOLIS      CLOUDY    53  37  54 NW9       30.02R
ANDREWS AFB    MOCLDY    51  37  57 NW10      30.02R
PHILADELPHIA   CLOUDY    47  39  74 N8        30.02R
HENDERSON NC   CLEAR     55  33  42 NW3       30.01R
GREENSBORO     PTCLDY    59  36  42 N6        30.02R
ROCKY MOUNT    CLEAR     58  38  47 N7        30.00R
$$

VAZ100-190000-
MARINE

STATION/POSITION TIME  TEMP    WIND        PRES    WAVE   SWELL
                       AIR SEA DIR/SP/G            HT/PER HT/PER
                 (UTC) (F)     (DEG/KT/KT) (MB)    (FT/S) (FT/S)
CAPE MAY NJ      2248   45 41   20/  1/  3 1015.6R
LEWES DE         2248          330/  7/  8   N/A
OCEAN-CITY-INLET 2248           10/  7/  8   N/A
WACHAPREAGUE VA  2248   50 51  310/  3/  6 1015.6R
THOMAS POINT MD  2300   53 39  330/ 16/ 17   N/A
GOOSES REEF MD   2250   47     320/ 10/ 10 1016.9R
COVE POINT MD    2248   48     350/ 12/ 14 1016.9R
SOLOMONS ISLAND  2242   53 42  310/  5/  8   N/A
BISHOPS HEAD MD  2248   53 46  330/  9/ 14 1016.1R
PINEY POINT MD   2242          350/  7/  7   N/A
POTOMAC MD       2250   46      CALM  /  2 1015.3R
CAMBRIDGE MD     2248   48 40  340/  7/  9 1015.4R
LEWISETTA VA     2248   54 44  340/  8/ 10 1015.9R
RAPPAHANNOCK LGT 2242          340/ 11/ 11 1016.4R
STINGRAY PT      2250   47      10/  6/  8 1016.3R
YORK RVR RNG VA  2248   50     360/  6/  8 1015.3R
YORKTOWN VA      2248   49 42   CALM  /  3 1015.7R
JAMESTOWN VA     2250   53     120/  4/  4   N/A
DOMINION TERM VA 2248   48      50/  3/  3 1016.1R
KIPTOPEKE VA     2248          310/  5/  6   N/A
CHES BAY BRIDGE  2248   45 43  310/  4/  5 1015.9R
CAPE HENRY VA    2248   47     300/  6/  7   N/A
WILLOUBY STN VA  2248   48      20/  2/  2 1017.0R
S CRANEY ISL VA  2248   48      30/  2/  3 1015.8R
CAPE HENRY BUOY  2242      47                N/A     1/ 7
OFFSHORE WE BUOY 2251      49                N/A     2/ 7
64NM E OF VA BCH 2250   52 56  340/ 16/ 17 1014.6R   5/ 5   2/11
DUCK PIER NC     2248   47 46  360/ 10/ 10 1014.9R
44100 DUCK FRF   2235      48                N/A     3/ 4
44056 DUCK FRF   2230      46                N/A     3/ 4
OREGON INLET NC  2242   48 51  360/  6/  8 1015.2R
HATTERAS NC      2248   51 55   10/ 16/ 19 1014.7R
DIAMOND SHLS NC  2250   55 72   20/ 27/ 33 1014.0R   6/ 6   2/17
CAPE LOOKOUT NC  2300   54      20/ 13/ 15 1015.3R
$$




USA.gov is the U.S. government's official web portal to all federal, state and local government web resources and services.